Regional Weather Roundup
Issued by NWS

Home | Current Version | Previous Version | Graphics & Text | Print | Product List | Glossary On
Versions: 1 2 3 4 5 6 7 8 9 10 11 12 13 14 15 16 17 18 19 20 21 22 23 24 25 26 27 28 29 30 31 32 33 34 35 36 37 38 39 40 41 42 43 44 45 46 47 48 49 50
674
ASUS43 KMKX 290311
RWRWI

WISCONSIN REGIONAL WEATHER ROUNDUP
NATIONAL WEATHER SERVICE MILWAUKEE/SULLIVAN WI
1000 PM CDT FRI APR 28 2017

NOTE: "FAIR" INDICATES FEW OR NO CLOUDS BELOW 12,000 FEET WITH NO
SIGNIFICANT WEATHER AND/OR OBSTRUCTIONS TO VISIBILITY.

WIZ001-002-006>008-014>016-023>028-290400-
NORTHWEST WISCONSIN

CITY           SKY/WX    TMP DP  RH WIND       PRES   REMARKS
SUPERIOR ARPT  PTCLDY    39  26  59 NE5       30.13R
ASHLAND        CLOUDY    34  27  75 E3        30.14R
HAYWARD        CLOUDY    36  27  69 CALM      30.09R
SIREN          MOCLDY    39  30  70 CALM      30.10R
CUMBERLAND     PTCLDY    36  32  87 CALM      30.08R
RICE LAKE      PTCLDY    39  32  76 CALM      30.09R
CHETEK         NOT AVBL
LADYSMITH      PTCLDY    40  32  73 CALM      30.09R
EAU CLAIRE     PTCLDY    39  30  70 CALM      30.08R
MENOMONIE      PTCLDY    43  30  59 CALM      30.09R
NEW RICHMOND   MOCLDY    39  31  75 CALM      30.09R
OSCEOLA        MOCLDY    38  33  80 CALM      30.11S
$$

WIZ003>005-009-010-017-018-290400-
NORTH CENTRAL WISCONSIN

CITY           SKY/WX    TMP DP  RH WIND       PRES   REMARKS
MANITOWISH WTR PTCLDY    32  28  83 CALM      30.08R
ARBOR VITAE    PTCLDY    37  30  77 N5        30.07R WCI  33
WOODRUFF       PTCLDY    37  30  77 N5        30.07R WCI  33
RHINELANDER    PTCLDY    34  28  79 CALM      30.06R
EAGLE RIVER    CLOUDY    33  26  76 N7        30.07R WCI  26
LAND O LAKES   CLOUDY    32  26  77 CALM      30.09R
PHILLIPS       PTCLDY    34  30  86 CALM      30.06R
TOMAHAWK       PTCLDY    32  30  90 CALM      30.08R
MEDFORD        PTCLDY    37  30  77 CALM      30.07R
MERRILL        CLOUDY    37  31  79 CALM      30.07R
$$

WIZ029-030-035-036-043>047-290400-
CENTRAL WISCONSIN

CITY           SKY/WX    TMP DP  RH WIND       PRES   REMARKS
WAUSAU         PTCLDY    41  29  62 N3        30.06R
MOSINEE        MOCLDY    41  30  65 N6        30.07R
MARSHFIELD     CLOUDY    41  33  73 N6        30.05R
STEVENS POINT  CLOUDY    40  34  77 N3        30.06R
WAUPACA        CLOUDY    48  34  59 N3        30.05R
WAUTOMA        CLOUDY    45  40  82 CALM      30.05R
WISC RAPIDS    CLOUDY    45  34  65 N3        30.06R
CAMP DOUGLAS   CLOUDY    44  34  65 NW8       30.04R
$$

WIZ011>013-019>022-031-037>040-048>050-290400-
NORTHEAST WISCONSIN

CITY           SKY/WX    TMP DP  RH WIND       PRES   REMARKS
ANTIGO         MOCLDY    35  31  83 CALM      30.06R
SHAWANO        CLOUDY    47  33  59 N7        30.05R
OCONTO         CLOUDY    44  32  61 N6        30.06R
STURGEON BAY   CLOUDY    42  36  79 N5        30.06R
GREEN BAY      CLOUDY    48  39  71 N7        30.04R
MANITOWOC      CLOUDY    41  39  93 CALM      30.05R
APPLETON       MOCLDY    46  32  57 NW6       30.02R
CLINTONVILLE   CLOUDY    45  32  61 N8        30.06R
OSHKOSH        CLOUDY    46  38  73 N5        30.02R
$$

WIZ032>034-041-042-053>061-290400-
SOUTHWEST WISCONSIN

CITY           SKY/WX    TMP DP  RH WIND       PRES   REMARKS
LA CROSSE      CLOUDY    46  34  62 N6        30.06R
SPARTA         CLOUDY    44  35  70 N3        30.06R
VIROQUA        CLOUDY    42  36  77 N6        30.03R
BOSCOBEL       CLOUDY    45  40  82 N5        30.05R
PRAIRIE DU CHI CLOUDY    45  38  77 N5        30.04R
PLATTEVILLE    CLOUDY    45  43  93 N9        30.02R
$$

WIZ056-057-062-063-064-067-068-290400-
SOUTH CENTRAL WISCONSIN

CITY           SKY/WX    TMP DP  RH WIND       PRES   REMARKS
REEDSBURG      CLOUDY    43  41  90 N3        30.02R
BARABOO/DELLS  CLOUDY    43  38  81 N3        30.03R
LONE ROCK      CLOUDY    46  40  79 CALM      30.04R
MINERAL POINT  CLOUDY    45  43  93 N12       30.02R
MADISON        CLOUDY    45  41  86 N8        30.02R
MIDDLETON      CLOUDY    46  41  83 N7        30.03R
WATERTOWN      CLOUDY    45  45 100 N3        30.01R
MONROE         CLOUDY    43  43 100 N13       29.99R
JANESVILLE     CLOUDY    46  45  93 N9G16     29.99R
$$

WIZ051-052-058>065-066-070>072-290400-
SOUTHEAST WISCONSIN

CITY           SKY/WX    TMP DP  RH WIND       PRES   REMARKS
MILWAUKEE      DRIZZLE   45  43  93 N8        30.00R
WAUKESHA       NOT AVBL
MILWAUKEE/TIMM CLOUDY    43  39  87 N6        30.02R FOG
RACINE         CLOUDY    43  39  86 N13       30.01R
KENOSHA        CLOUDY    47  40  76 NE8       29.99R
FOND DU LAC    CLOUDY    47  39  74 N5        30.02R
SHEBOYGAN      CLOUDY    42  40  92 NE3       30.03R FOG
WEST BEND      CLOUDY    43  43 100 NE3       30.02R FOG
JUNEAU         CLOUDY    44  40  86 N3        30.03R
$$

LSZ147-162-290400-
LAKE SUPERIOR

STATION/POSITION TIME  TEMP    WIND        PRES    WAVE
                       AIR SEA DIR/SP/G            HT/PER
                 (UTC) (F)     (DEG/KT/KT) (MB)    (FT/S)
DEVILS ISLAND    0300   39     320/ 10/ 11 1020.7R
PORT WING        0240   39      50/  8/ 10 1020.0R
SAXON HARBOR     0240   36      CALM  /  2 1019.6R
$$

LMZ867-665-643>646-290400-
LAKE MICHIGAN

STATION/POSITION TIME  TEMP    WIND        PRES    WAVE
                       AIR SEA DIR/SP/G            HT/PER
                 (UTC) (F)     (DEG/KT/KT) (MB)    (FT/S)
CHAMBERS ISLAND  0240   42     310/  7/ 10 1016.9R
N MID LAKE BUOY  0250   38 37  220/  8/ 10 1018.9R   2/ 5
NORTHPORT PIER   0240   42      CALM  /  3 1017.6R
SISTER BAY       0151   40        CALM       N/A
KEWAUNEE LAKESHO 0242   43     190/  2/  4 1016.5R
SHEBOYGAN LAKESH 0300   40      40/  2/  3 1017.2R
PORT WASHINGTON  0240   42      40/  5/  6 1017.6R
MILWAUKEE LAKESH 0250   43     350/ 13/ 16   N/A
S MID LAKE BUOY  0150   43 41   30/ 10/ 10 1014.6R   1
KENOSHA   LAKESH 0300   43      20/ 19/ 22 1015.9
$$

TC  - TEMPERATURE IN CELSIUS
VSB - VISIBILITY IN STATUTE MILES
WCI - WIND CHILL INDEX
HX  - HEAT INDEX





USA.gov is the U.S. government's official web portal to all federal, state and local government web resources and services.